Madawaska, ME

1:46 AM EST on February 07, 2016 (GMT -0500)
Northern Aroostook Regional

Weather History for KFVE - November, 2012

Change the Weather History Date:

Thursday, November 22, 2012

  Actual Average Record
Temperature  
Mean Temperature 38 °F 27 °F  
Max Temperature 46 °F 33 °F 46 °F (1999)
Min Temperature 29 °F 21 °F 5 °F (2014)
Degree Days  
Heating Degree Days 27    
Month to date heating degree days 709  
Since 1 July heating degree days 1672  
Cooling Degree Days 0    
Month to date cooling degree days 0  
Year to date cooling degree days 203  
Moisture  
Dew Point 29 °F    
Average Humidity 84    
Maximum Humidity 100    
Minimum Humidity 47    
Precipitation  
Precipitation 0.00 in 0.11 in 1.34 in (2005)
Month to date precipitation 0.42 2.14  
Year to date precipitation 30.08 30.26  
Sea Level Pressure  
Sea Level Pressure 30.11 in    
Wind  
Wind Speed 8 mph (South)    
Max Wind Speed 14 mph    
Max Gust Speed 20 mph    
Visibility 7 miles    
Events      
T = Trace of Precipitation, MM = Missing Value Source: NWS Daily Summary

Daily Weather History Graph

Daily Weather History Graph

Search for Another Location

Airport or City:

Trip Planner

Search our weather history database for the weather conditions in past years. The results will help you decide how hot, cold, wet, or windy it might be!

Date:

Astronomy

Nov. 22, 2012 Rise Set
Actual Time 6:48 AM EST 3:50 PM EST
Civil Twilight 6:14 AM EST 4:24 PM EST
Nautical Twilight 5:36 AM EST 5:02 PM EST
Astronomical Twilight 4:59 AM EST 5:38 PM EST
Moon 12:53 PM EST (11/22) 12:43 AM EST (11/22)
Length of Visible Light 10h 10m
Length of Day
9h 02m
Waxing Gibbous, 71% of the Moon is Illuminated
Nov 22
Waxing Gibbous
Nov 28
Full
Dec 6
Last Quarter
Dec 13
New
Dec 20
First Quarter

Hourly Weather History & Observations

Time (EST) Temp. Windchill Dew Point Humidity Pressure Visibility Wind Dir Wind Speed Gust Speed Precip Events Conditions
12:02 AM 30.2 °F 22.6 °F 30.2 °F 100% 30.15 in 1.5 mi South 8.1 mph - N/A   Overcast
12:11 AM 30.2 °F 21.3 °F 30.2 °F 100% 30.14 in 1.0 mi South 10.4 mph - N/A   Mist
12:18 AM 30.2 °F 21.3 °F 30.2 °F 100% 30.14 in 0.8 mi South 10.4 mph - N/A   Mist
12:32 AM 30.2 °F 21.9 °F 30.2 °F 100% 30.14 in 1.5 mi South 9.2 mph - N/A   Overcast
12:34 AM 30.2 °F 21.9 °F 30.2 °F 100% 30.14 in 2.0 mi South 9.2 mph - N/A   Overcast
12:42 AM 30.2 °F 22.6 °F 30.2 °F 100% 30.14 in 4.0 mi South 8.1 mph - N/A   Overcast
12:53 AM 30.9 °F 25.2 °F 30.0 °F 96% 30.18 in 1.8 mi South 5.8 mph - N/A   Overcast
12:56 AM 30.2 °F 23.4 °F 30.2 °F 100% 30.15 in 1.2 mi South 6.9 mph - N/A   Overcast
1:15 AM 30.2 °F 24.3 °F 30.2 °F 100% 30.15 in 1.8 mi SSW 5.8 mph - N/A   Overcast
1:20 AM 30.2 °F 23.4 °F 30.2 °F 100% 30.15 in 3.0 mi SSW 6.9 mph - N/A   Overcast
1:44 AM 30.2 °F 22.6 °F 30.2 °F 100% 30.15 in 6.0 mi South 8.1 mph - N/A   Scattered Clouds
1:53 AM 30.9 °F 22.8 °F 30.0 °F 96% 30.18 in 7.0 mi South 9.2 mph - N/A   Partly Cloudy
2:53 AM 30.9 °F 22.8 °F 28.9 °F 92% 30.16 in 9.0 mi South 9.2 mph - N/A   Clear
3:53 AM 30.0 °F 22.4 °F 28.9 °F 96% 30.16 in 10.0 mi South 8.1 mph - N/A   Partly Cloudy
4:53 AM 30.0 °F 22.4 °F 28.9 °F 96% 30.15 in 10.0 mi South 8.1 mph - N/A   Clear
5:53 AM 30.0 °F 23.2 °F 28.0 °F 92% 30.16 in 10.0 mi South 6.9 mph - N/A   Clear
6:53 AM 28.9 °F 22.8 °F 28.0 °F 96% 30.16 in 7.0 mi SSE 5.8 mph - N/A   Clear
7:53 AM 30.9 °F 25.2 °F 30.0 °F 96% 30.16 in 9.0 mi South 5.8 mph - N/A   Clear
8:53 AM 32.0 °F 26.4 °F 30.0 °F 92% 30.17 in 10.0 mi South 5.8 mph - N/A   Clear
9:53 AM 35.1 °F 28.6 °F 30.9 °F 85% 30.16 in 10.0 mi South 8.1 mph - N/A   Clear
10:53 AM 37.9 °F 32.7 °F 30.0 °F 73% 30.14 in 10.0 mi SSE 6.9 mph - N/A   Clear
11:53 AM 42.1 °F 37.1 °F 30.9 °F 65% 30.10 in 10.0 mi South 8.1 mph - N/A   Clear
12:53 PM 44.1 °F 38.6 °F 28.0 °F 53% 30.09 in 10.0 mi South 10.4 mph - N/A   Clear
1:53 PM 45.0 °F 40.6 °F 28.9 °F 53% 30.07 in 10.0 mi South 8.1 mph - N/A   Clear
2:53 PM 46.0 °F 41.9 °F 27.0 °F 47% 30.05 in 10.0 mi South 8.1 mph - N/A   Clear
3:53 PM 44.1 °F 39.0 °F 27.0 °F 51% 30.05 in 10.0 mi South 9.2 mph - N/A   Clear
4:53 PM 42.1 °F 36.1 °F 27.0 °F 55% 30.04 in 10.0 mi SSW 10.4 mph - N/A   Clear
5:53 PM 39.9 °F 34.5 °F 27.0 °F 60% 30.05 in 10.0 mi South 8.1 mph - N/A   Clear
6:53 PM 37.9 °F 31.5 °F 27.0 °F 65% 30.04 in 10.0 mi SSE 9.2 mph - N/A   Clear
7:53 PM 37.0 °F 29.3 °F 28.9 °F 73% 30.03 in 10.0 mi South 11.5 mph - N/A   Clear
8:53 PM 36.0 °F 28.0 °F 30.0 °F 79% 30.01 in 10.0 mi South 11.5 mph - N/A   Clear
9:53 PM 35.1 °F 27.4 °F 30.0 °F 82% 29.99 in 10.0 mi South 10.4 mph - N/A   Clear
10:53 PM 34.0 °F 27.2 °F 28.9 °F 82% 29.98 in 10.0 mi South 8.1 mph - N/A   Clear
11:53 PM 34.0 °F 27.2 °F 28.9 °F 82% 29.96 in 10.0 mi South 8.1 mph - N/A   Clear